[[{"header":{"parameterUnit":"m.s-1","parameterCategory":1,"la1":30.2991,"la2":30.254,"lo1":-89.0895,"lo2":-89.0444,"dx":0.0017,"dy":0.0017,"nx":28,"ny":28,"refTime":"2022-12-18T15:00:00:Z","depth":0,"parameterNumber":2,"parameterNumberName":"U-component_of_WINDS"},"data":[0,0,0,0,0,0,0,0,0,0,0,0,0,0,0,0,0,0,0,0,0,0,0,0,0,0,0,0,0,0,0,0,0,0,0,0,0,0,0,0,0,0,0,0,0,0,0,0,0,0,0,0,0,0,0,0,0,0,-9.0842,-9.0843,0,-9.0924,-9.0925,-9.0926,-9.0746,-9.074,-9.0734,-9.0729,-9.081,-9.0817,-9.0825,0,0,0,0,0,0,0,0,0,0,0,0,0,-9.0527,-9.0534,-9.0842,-9.0843,-9.0845,-9.0924,-9.0925,-9.0926,-9.0747,-9.074,-9.0733,-9.0726,-9.0808,-9.0817,-9.0826,0,0,0,0,0,0,0,0,0,0,0,0,0,-9.0642,-9.0536,-9.0842,-9.0765,-9.0758,-9.0924,-9.0925,-9.0926,-9.0748,-9.0739,-9.0731,-9.0723,-9.0805,-9.0816,-9.0827,-9.1071,0,0,-9.0862,-9.0867,0,0,0,0,0,0,0,0,-9.0636,-9.0654,-9.0775,-9.077,-9.0764,-9.0816,-9.0843,-9.0975,-9.075,-9.0752,-9.0728,-9.0718,-9.0819,-9.0829,-9.0863,-9.1075,-9.1078,-9.0863,-9.0869,-9.0874,-9.0878,0,0,0,0,0,0,0,-9.0628,-9.0649,-9.0874,-9.0777,-9.077,-9.0724,-9.0731,-9.0867,-9.0833,-9.0751,-9.0738,-9.0751,-9.0814,-9.0852,-9.0863,-9.1079,-9.0862,-9.0872,-9.0879,-9.0884,-9.1492,-9.1501,0,0,0,0,0,0,-9.063,-9.0644,-9.0872,-9.0877,-9.0677,-9.0737,-9.0744,-9.0808,-9.0831,-9.0826,-9.0758,-9.0742,-9.0837,-9.085,-9.0866,-9.1151,-9.0874,-9.0885,-9.0891,-9.1483,-9.1494,-9.1504,0,0,0,0,0,0,-9.0624,-9.0652,-9.0869,-9.0757,-9.0781,-9.0752,-9.0824,-9.0814,-9.0852,-9.0836,-9.0829,-9.0804,-9.0831,-9.085,-9.1021,-9.1151,-9.089,-9.09,-9.1472,-9.1486,-9.1499,-9.1726,0,0,0,0,0,0,-9.0616,-9.0651,-9.0745,-9.076,-9.0788,-9.1025,-9.0832,-9.0822,-9.0872,-9.0852,-9.0877,-9.0873,-9.0826,-9.1005,-9.1032,-9.1162,-9.0909,-9.146,-9.1478,-9.1495,-9.1706,-9.1746,-9.1779,0,0,0,0,0,-9.0605,-9.0805,-9.0751,-9.0779,-9.0904,-9.1032,-9.1048,-9.099,-9.0884,-9.0977,-9.0966,-9.0872,-9.1133,-9.1024,-9.1053,-9.1189,-9.1451,-9.1473,-9.1493,-9.169,-9.1738,-9.1778,0,0,0,0,0,0,-9.0806,-9.0806,-9.0745,-9.0957,-9.0996,-9.1002,-9.1117,-9.1043,-9.1112,-9.1091,-9.1015,-9.1022,-9.1207,-9.1214,-9.1093,-9.1424,-9.1274,-9.1302,-9.1413,-9.1459,-9.1494,-9.1489,-9.0919,0,0,0,0,0,-9.0875,-9.098,-9.0974,-9.1161,-9.1184,-9.1148,-9.1201,-9.1153,-9.119,-9.1206,-9.1208,-9.1247,-9.1336,-9.1398,-9.148,-9.1706,-9.1708,-9.1813,-9.185,-9.188,-9.1905,-9.2023,-9.2069,-9.1573,-9.1573,-9.1573,0,0,-9.1018,-9.1031,-9.1102,-9.1202,-9.1226,-9.1335,-9.1163,-9.1286,-9.1366,-9.1224,-9.1386,-9.1389,-9.1426,-9.1626,-9.1714,-9.1638,-9.2042,-9.1907,-9.1931,-9.194,-9.2049,-9.2096,-9.2138,-9.1588,-9.1585,-9.1583,0,0,-9.1335,-9.1357,-9.1514,-9.1542,-9.1581,-9.1555,-9.1593,-9.161,-9.1607,-9.1768,-9.1663,-9.1756,-9.1913,-9.1944,-9.1981,-9.2307,-9.2223,-9.2336,-9.2526,-9.2642,-9.2681,-9.2715,-9.2831,-9.2873,-9.2361,-9.2361,-9.2362,0,-9.1509,-9.167,-9.1604,-9.1734,-9.178,-9.1657,-9.1814,-9.1844,-9.1909,-9.1942,-9.1856,-9.205,-9.2067,-9.2271,-9.235,-9.2384,-9.2424,-9.2333,-9.2681,-9.2715,-9.2746,-9.2855,-9.2898,-9.2375,-9.2373,-9.2372,-9.237,0,-9.188,-9.1994,-9.2115,-9.2181,-9.224,-9.2384,-9.2338,-9.2406,-9.2352,-9.2335,-9.2499,-9.2514,-9.2597,-9.2641,-9.259,-9.2838,-9.2789,-9.2694,-9.2541,-9.2808,-9.2909,-9.295,-9.2394,-9.2389,-9.2385,-9.2382,0,0,-9.2328,-9.2353,-9.2399,-9.2426,-9.246,-9.2545,-9.2682,-9.2763,-9.2822,-9.2869,-9.2981,-9.3116,-9.3027,-9.3069,-9.3019,-9.3121,-9.3377,-9.3012,-9.3012,-9.3079,-9.3648,-9.372,-9.3769,-9.3321,-9.3328,-9.3334,-9.3645,0,-9.2641,-9.2877,-9.282,-9.3053,-9.3156,-9.3039,-9.3157,-9.319,-9.3177,-9.3261,-9.3245,-9.3342,-9.3218,-9.3242,-9.3338,-9.3326,-9.349,-9.3302,-9.3422,-9.3428,-9.3417,-9.3822,-9.3899,-9.4191,-9.3684,-9.369,-9.3695,0,-9.3038,-9.3101,-9.3345,-9.3359,-9.34,-9.3508,-9.3576,-9.3658,-9.3692,-9.3675,-9.3721,-9.365,-9.3783,-9.3629,-9.381,-9.3684,-9.3729,-9.373,-9.374,-9.3749,-9.3578,-9.3841,-9.4283,-9.4326,-9.3757,-9.3752,-9.3748,0,-9.3339,-9.3484,-9.3648,-9.3675,-9.3697,-9.3775,-9.3787,-9.3812,-9.3863,-9.3922,-9.3954,-9.4029,-9.4069,-9.4127,-9.4078,-9.3971,-9.4267,-9.4109,-9.4255,-9.4257,-9.4323,-9.4319,-9.4777,-9.4354,-9.4353,-9.4352,-9.4351,0,-9.3694,-9.3848,-9.3783,-9.3885,-9.4052,-9.3984,-9.4151,-9.4149,-9.4172,-9.4269,-9.4172,-9.4265,-9.4194,-9.4281,-9.4243,-9.4398,-9.4417,-9.4406,-9.4394,-9.4415,-9.4416,-9.4443,-9.4421,-9.4364,-9.4361,-9.4359,-9.4357,0,-9.4059,-9.4023,-9.4193,-9.4199,-9.4204,-9.4327,-9.4331,-9.4423,-9.4402,-9.4526,-9.4551,-9.4519,-9.4615,-9.4571,-9.4673,-9.4647,-9.4846,-9.4807,-9.4835,-9.4825,-9.4973,-9.496,-9.5464,-9.5526,-9.5064,-9.5068,-9.5072,0,-9.4288,-9.4403,-9.4421,-9.4479,-9.4499,-9.4594,-9.4646,-9.4582,-9.464,-9.4685,-9.4772,-9.486,-9.4927,-9.5086,-9.5071,-9.5147,-9.5108,-9.528,-9.5119,-9.5136,-9.511,-9.5103,-9.5114,-9.5312,-9.5318,-9.5322,-9.5326,0,-9.4699,-9.4674,-9.4753,-9.4826,-9.489,-9.4944,-9.4989,-9.5042,-9.498,-9.505,-9.5147,-9.5199,-9.5302,-9.539,-9.5456,-9.5466,-9.5387,-9.5376,-9.5414,-9.5436,-9.5447,-9.5442,-9.4922,-9.5365,-9.5361,-9.5358,-9.5356,-9.5355,-9.5002,-9.5098,-9.5125,-9.5215,-9.5242,-9.5287,-9.5373,-9.5363,-9.5443,-9.5522,-9.5479,-9.5593,-9.562,-9.5701,-9.5722,-9.5808,-9.574,-9.5796,-9.5809,-9.5824,-9.5843,-9.5434,-9.582,-9.5819,-9.5818,-9.5817,-9.5816,0,-9.5406,-9.5417,-9.5501,-9.5567,-9.5638,-9.5556,-9.5601,-9.5665,-9.5766,-9.5799,-9.5867,-9.5977,-9.6062,-9.6052,-9.6129,-9.62,-9.6164,-9.6222,-9.6216,-9.6219,-9.59,-9.5859,-9.6249,-9.6249,-9.6249,-9.6248,-9.6248,-9.6248,-9.5625,-9.5782,-9.5761,-9.593,-9.5939,-9.605,-9.6082,-9.6122,-9.6147,-9.6276,-9.6345,-9.6338,-9.6353,-9.643,-9.6503,-9.6497,-9.6529,-9.6601,-9.6582,-9.6284,-9.6242,-9.6201,-9.6162,-9.6609,-9.6609,-9.6893,-9.6896,-9.6898]},{"header":{"parameterUnit":"m.s-1","parameterCategory":1,"la1":30.2991,"la2":30.254,"lo1":-89.0895,"lo2":-89.0444,"dx":0.0017,"dy":0.0017,"nx":28,"ny":28,"refTime":"2022-12-18T15:00:00:Z","depth":0,"parameterNumber":3,"parameterNumberName":"V-component_of_WINDS"},"data":[0,0,0,0,0,0,0,0,0,0,0,0,0,0,0,0,0,0,0,0,0,0,0,0,0,0,0,0,0,0,0,0,0,0,0,0,0,0,0,0,0,0,0,0,0,0,0,0,0,0,0,0,0,0,0,0,0,0,-4.4983,-4.4985,0,-4.5102,-4.5103,-4.5104,-4.5084,-4.5082,-4.508,-4.5078,-4.5199,-4.5204,-4.5209,0,0,0,0,0,0,0,0,0,0,0,0,0,-4.4738,-4.4743,-4.4983,-4.4985,-4.4986,-4.5101,-4.5103,-4.5105,-4.5085,-4.5082,-4.508,-4.5077,-4.5198,-4.5204,-4.521,0,0,0,0,0,0,0,0,0,0,0,0,0,-4.4849,-4.4744,-4.4983,-4.499,-4.4992,-4.5101,-4.5103,-4.5105,-4.5085,-4.5082,-4.5079,-4.5076,-4.5195,-4.5203,-4.5211,-4.532,0,0,-4.5234,-4.5237,0,0,0,0,0,0,0,0,-4.4843,-4.4858,-4.4988,-4.499,-4.4992,-4.5075,-4.5061,-4.5177,-4.5086,-4.505,-4.5078,-4.5075,-4.516,-4.5171,-4.52,-4.5326,-4.5331,-4.5235,-4.524,-4.5243,-4.5245,0,0,0,0,0,0,0,-4.4835,-4.4853,-4.503,-4.499,-4.4992,-4.4987,-4.4999,-4.5083,-4.5121,-4.5053,-4.5052,-4.5066,-4.5161,-4.5192,-4.5202,-4.5333,-4.5235,-4.5241,-4.5246,-4.5249,-4.5551,-4.5555,0,0,0,0,0,0,-4.4826,-4.4847,-4.5026,-4.5034,-4.4908,-4.4994,-4.5008,-4.5052,-4.512,-4.5127,-4.5068,-4.5064,-4.5181,-4.5193,-4.5207,-4.5337,-4.5243,-4.525,-4.5254,-4.5548,-4.5552,-4.5556,0,0,0,0,0,0,-4.482,-4.4842,-4.5022,-4.494,-4.4962,-4.5001,-4.5051,-4.5056,-4.5087,-4.5132,-4.5138,-4.5094,-4.5179,-4.5196,-4.5291,-4.5341,-4.5253,-4.526,-4.5544,-4.5549,-4.5554,-4.5601,0,0,0,0,0,0,-4.4813,-4.484,-4.4883,-4.4941,-4.4967,-4.5105,-4.5054,-4.506,-4.51,-4.5096,-4.5157,-4.5164,-4.5178,-4.528,-4.5299,-4.535,-4.5266,-4.554,-4.5546,-4.5552,-4.5595,-4.5607,-4.5617,0,0,0,0,0,-4.4805,-4.4892,-4.4885,-4.4907,-4.5021,-4.5108,-4.5123,-4.5136,-4.5104,-4.5147,-4.5175,-4.5162,-4.5333,-4.529,-4.5311,-4.5366,-4.5537,-4.5545,-4.5552,-4.559,-4.5605,-4.5617,0,0,0,0,0,0,-4.4839,-4.49,-4.4893,-4.5002,-4.505,-4.5105,-4.5159,-4.5152,-4.521,-4.5204,-4.5218,-4.5232,-4.5329,-4.5357,-4.5308,-4.5474,-4.543,-4.5442,-4.5452,-4.5466,-4.5477,-4.5468,-4.5273,0,0,0,0,0,-4.4859,-4.4925,-4.4975,-4.5066,-4.509,-4.512,-4.5159,-4.5165,-4.5215,-4.5236,-4.5271,-4.5321,-4.5385,-4.5427,-4.5489,-4.5599,-4.5611,-4.5647,-4.5658,-4.5667,-4.5677,-4.5735,-4.5751,-4.5581,-4.5581,-4.5581,0,0,-4.4902,-4.4943,-4.4984,-4.5074,-4.5112,-4.5179,-4.5138,-4.5211,-4.5261,-4.5247,-4.5339,-4.5367,-4.5422,-4.5525,-4.5572,-4.5551,-4.5727,-4.5677,-4.5683,-4.5689,-4.5745,-4.5761,-4.5775,-4.5586,-4.5585,-4.5584,0,0,-4.5013,-4.5052,-4.5131,-4.5169,-4.5227,-4.5246,-4.5265,-4.5321,-4.5338,-4.5431,-4.5421,-4.548,-4.5591,-4.563,-4.5665,-4.5789,-4.5778,-4.5808,-4.5866,-4.5923,-4.5936,-4.5948,-4.599,-4.6006,-4.5819,-4.5819,-4.5819,0,-4.5058,-4.516,-4.5172,-4.5246,-4.5285,-4.5275,-4.5354,-4.5391,-4.5466,-4.5492,-4.5468,-4.5606,-4.5643,-4.5753,-4.5783,-4.5812,-4.5833,-4.5802,-4.5933,-4.5945,-4.5956,-4.5997,-4.6013,-4.5822,-4.5822,-4.5821,-4.5821,0,-4.5212,-4.5282,-4.5339,-4.5411,-4.5456,-4.5532,-4.5555,-4.5599,-4.56,-4.5622,-4.5715,-4.5758,-4.5828,-4.5855,-4.5858,-4.5965,-4.595,-4.593,-4.5886,-4.5976,-4.6014,-4.603,-4.5826,-4.5825,-4.5824,-4.5824,0,0,-4.535,-4.5426,-4.5446,-4.5477,-4.5539,-4.5593,-4.5668,-4.5736,-4.5772,-4.5824,-4.5886,-4.5979,-4.596,-4.5999,-4.6006,-4.6055,-4.6148,-4.6028,-4.603,-4.6048,-4.6267,-4.6282,-4.63,-4.6141,-4.6145,-4.6147,-4.6262,0,-4.5466,-4.5598,-4.561,-4.5728,-4.5792,-4.5782,-4.5847,-4.5891,-4.5913,-4.5969,-4.5993,-4.6058,-4.6028,-4.6051,-4.61,-4.6127,-4.6192,-4.6119,-4.6198,-4.6201,-4.6184,-4.632,-4.6337,-4.6444,-4.6277,-4.628,-4.6282,0,-4.5619,-4.5674,-4.5799,-4.5849,-4.5877,-4.5935,-4.5996,-4.6051,-4.61,-4.6112,-4.6155,-4.6154,-4.623,-4.6183,-4.6287,-4.6236,-4.6269,-4.6287,-4.6292,-4.6299,-4.6247,-4.6331,-4.6478,-4.6494,-4.6306,-4.6304,-4.6302,0,-4.5705,-4.581,-4.5898,-4.5925,-4.5987,-4.6028,-4.6055,-4.6102,-4.6141,-4.6194,-4.6219,-4.6281,-4.6315,-4.6363,-4.6378,-4.6343,-4.6481,-4.6436,-4.6492,-4.6491,-4.6521,-4.6519,-4.6675,-4.6544,-4.6544,-4.6543,-4.6543,0,-4.5833,-4.591,-4.5937,-4.5991,-4.6075,-4.6087,-4.617,-4.6196,-4.6236,-4.6294,-4.6289,-4.6343,-4.6361,-4.6418,-4.6431,-4.6514,-4.6529,-4.654,-4.6543,-4.654,-4.6539,-4.6562,-4.6555,-4.6548,-4.6547,-4.6546,-4.6545,0,-4.5944,-4.5966,-4.606,-4.611,-4.6124,-4.6184,-4.6226,-4.6277,-4.6297,-4.637,-4.6387,-4.6418,-4.6485,-4.6505,-4.6586,-4.6594,-4.669,-4.6687,-4.6674,-4.6674,-4.6728,-4.6722,-4.6904,-4.6927,-4.6782,-4.6783,-4.6784,0,-4.6024,-4.6082,-4.6138,-4.6176,-4.6204,-4.6266,-4.6305,-4.6319,-4.636,-4.6419,-4.6463,-4.6528,-4.6581,-4.6688,-4.6717,-4.6778,-4.6775,-4.6834,-4.6784,-4.6779,-4.6774,-4.677,-4.6775,-4.6844,-4.6845,-4.6846,-4.6848,0,-4.6163,-4.617,-4.6227,-4.6287,-4.6334,-4.6382,-4.6429,-4.646,-4.648,-4.6526,-4.6593,-4.6634,-4.6715,-4.678,-4.6841,-4.6869,-4.6861,-4.6863,-4.6879,-4.6877,-4.6866,-4.6871,-4.6698,-4.6859,-4.6858,-4.6857,-4.6856,-4.6856,-4.626,-4.631,-4.6357,-4.6419,-4.6455,-4.6498,-4.6548,-4.6573,-4.6629,-4.6696,-4.6701,-4.6773,-4.6819,-4.69,-4.6931,-4.6987,-4.697,-4.6993,-4.6999,-4.7004,-4.7008,-4.6858,-4.6998,-4.6998,-4.6998,-4.6998,-4.6997,0,-4.6398,-4.6426,-4.6484,-4.6548,-4.6597,-4.6585,-4.6635,-4.6677,-4.674,-4.6784,-4.6835,-4.6912,-4.6974,-4.7007,-4.7068,-4.7107,-4.7105,-4.7123,-4.712,-4.7126,-4.7021,-4.7,-4.7123,-4.7123,-4.7123,-4.7123,-4.7123,-4.7123,-4.6475,-4.6559,-4.6571,-4.6672,-4.67,-4.6771,-4.68,-4.6839,-4.6873,-4.6958,-4.7009,-4.703,-4.7069,-4.7133,-4.7189,-4.7197,-4.7219,-4.7239,-4.7245,-4.7146,-4.7133,-4.7121,-4.7102,-4.7244,-4.7244,-4.7345,-4.7346,-4.7347]}]]